[[{"header":{"parameterUnit":"m.s-1","parameterCategory":1,"la1":30.2991,"la2":30.254,"lo1":-89.0895,"lo2":-89.0444,"dy":0.0017,"dx":0.0017,"nx":28,"ny":28,"refTime":"2025-06-03T09:00:00:Z","depth":0,"parameterNumber":2,"parameterNumberName":"U-component_of_WINDS"},"data":[0,0,0,0,0,0,0,0,0,0,0,0,0,0,0,0,0,0,0,0,0,0,0,0,0,0,0,0,0,0,0,0,0,0,0,0,0,0,0,0,0,0,0,0,0,0,0,0,0,0,0,0,0,0,0,0,0,0,-6.4921,-6.4923,0,-6.5062,-6.5064,-6.5065,-6.5023,-6.5021,-6.5018,-6.5015,-6.5153,-6.5159,-6.5165,0,0,0,0,0,0,0,0,0,0,0,0,0,-6.461,-6.4616,-6.4921,-6.4923,-6.4925,-6.5062,-6.5064,-6.5066,-6.5024,-6.502,-6.5017,-6.5014,-6.5151,-6.5158,-6.5166,0,0,0,0,0,0,0,0,0,0,0,0,0,-6.4747,-6.4618,-6.4921,-6.4921,-6.4922,-6.5061,-6.5064,-6.5066,-6.5025,-6.502,-6.5016,-6.5012,-6.5148,-6.5157,-6.5167,-6.5313,0,0,-6.5196,-6.52,0,0,0,0,0,0,0,0,-6.474,-6.4759,-6.4919,-6.4921,-6.4923,-6.5021,-6.5004,-6.5149,-6.5026,-6.4986,-6.5015,-6.501,-6.5112,-6.5124,-6.516,-6.5319,-6.5325,-6.5197,-6.5203,-6.5207,-6.5209,0,0,0,0,0,0,0,-6.473,-6.4753,-6.4977,-6.4921,-6.4924,-6.4911,-6.4926,-6.5032,-6.5071,-6.4989,-6.4986,-6.5004,-6.5112,-6.5151,-6.5163,-6.5327,-6.5197,-6.5205,-6.5211,-6.5215,-6.5611,-6.5615,0,0,0,0,0,0,-6.472,-6.4745,-6.4972,-6.4981,-6.4819,-6.4921,-6.4937,-6.4994,-6.507,-6.5078,-6.5007,-6.5001,-6.5137,-6.5152,-6.5167,-6.5341,-6.5207,-6.5216,-6.5221,-6.5606,-6.5612,-6.5617,0,0,0,0,0,0,-6.4714,-6.4741,-6.4966,-6.4862,-6.489,-6.4931,-6.4994,-6.4999,-6.5037,-6.5084,-6.509,-6.504,-6.5134,-6.5154,-6.5277,-6.5345,-6.522,-6.5229,-6.5601,-6.5608,-6.5615,-6.569,0,0,0,0,0,0,-6.4705,-6.4739,-6.4796,-6.4864,-6.4896,-6.5075,-6.4999,-6.5005,-6.5055,-6.5048,-6.5116,-6.5123,-6.5132,-6.5263,-6.5286,-6.5356,-6.5236,-6.5594,-6.5604,-6.5612,-6.5681,-6.5699,-6.5714,0,0,0,0,0,-6.4694,-6.4811,-6.4799,-6.4827,-6.4969,-6.508,-6.5097,-6.5107,-6.5061,-6.5117,-6.5147,-6.5121,-6.5335,-6.5276,-6.5302,-6.5375,-6.559,-6.5601,-6.5612,-6.5674,-6.5695,-6.5713,0,0,0,0,0,0,-6.4748,-6.482,-6.4808,-6.495,-6.501,-6.5072,-6.5144,-6.5129,-6.5201,-6.5191,-6.5198,-6.5214,-6.5339,-6.537,-6.5303,-6.552,-6.5455,-6.5472,-6.5494,-6.5515,-6.553,-6.5518,-6.5244,0,0,0,0,0,-6.4777,-6.4863,-6.4921,-6.5041,-6.5071,-6.5103,-6.5152,-6.5154,-6.5214,-6.5238,-6.5277,-6.5335,-6.5415,-6.5467,-6.5544,-6.5688,-6.57,-6.5751,-6.5767,-6.578,-6.5792,-6.5868,-6.589,-6.5653,-6.5652,-6.5652,0,0,-6.4836,-6.4886,-6.494,-6.5053,-6.5099,-6.5185,-6.5124,-6.5218,-6.5281,-6.5252,-6.537,-6.5401,-6.5466,-6.5599,-6.566,-6.5629,-6.5862,-6.5794,-6.5804,-6.5809,-6.5881,-6.5904,-6.5923,-6.566,-6.5659,-6.5657,0,0,-6.4987,-6.5036,-6.514,-6.5188,-6.5259,-6.528,-6.5305,-6.5371,-6.5391,-6.551,-6.5489,-6.5564,-6.5703,-6.5749,-6.5791,-6.5961,-6.5939,-6.5986,-6.6068,-6.6142,-6.616,-6.6177,-6.6234,-6.6255,-6.6,-6.6,-6.6,0,-6.5051,-6.5183,-6.5195,-6.5291,-6.534,-6.5321,-6.5424,-6.547,-6.5562,-6.5595,-6.556,-6.5732,-6.5775,-6.5917,-6.5959,-6.5995,-6.6021,-6.5976,-6.6157,-6.6174,-6.6189,-6.6244,-6.6265,-6.6005,-6.6004,-6.6004,-6.6003,0,-6.5256,-6.5347,-6.5423,-6.5513,-6.5571,-6.5671,-6.5696,-6.5753,-6.5752,-6.5775,-6.5895,-6.5947,-6.6032,-6.6067,-6.6066,-6.6209,-6.6187,-6.6156,-6.609,-6.6217,-6.6267,-6.6289,-6.6012,-6.601,-6.6009,-6.6008,0,0,-6.5441,-6.5539,-6.5565,-6.5605,-6.5684,-6.5753,-6.5852,-6.5937,-6.5984,-6.6049,-6.6129,-6.6248,-6.6219,-6.6266,-6.627,-6.6335,-6.6463,-6.6295,-6.6296,-6.632,-6.6619,-6.6639,-6.6663,-6.6451,-6.6455,-6.6458,-6.6612,0,-6.5595,-6.5769,-6.5784,-6.5939,-6.6022,-6.6006,-6.6091,-6.6147,-6.6172,-6.6244,-6.6272,-6.6354,-6.6312,-6.634,-6.6404,-6.6434,-6.6522,-6.6423,-6.6521,-6.6524,-6.65,-6.6691,-6.6712,-6.6855,-6.6633,-6.6636,-6.6639,0,-6.5798,-6.587,-6.6034,-6.6099,-6.6135,-6.6211,-6.629,-6.6361,-6.6423,-6.6437,-6.6491,-6.6486,-6.6585,-6.652,-6.6654,-6.6586,-6.6628,-6.6649,-6.6655,-6.666,-6.6585,-6.6696,-6.6902,-6.6921,-6.6671,-6.6668,-6.6666,0,-6.5911,-6.6049,-6.6165,-6.62,-6.6281,-6.6334,-6.637,-6.6429,-6.6479,-6.6548,-6.6579,-6.6659,-6.6701,-6.6761,-6.6777,-6.673,-6.691,-6.6847,-6.692,-6.692,-6.6954,-6.6951,-6.7164,-6.699,-6.699,-6.6989,-6.6989,0,-6.6079,-6.6178,-6.6216,-6.6287,-6.6397,-6.6413,-6.6522,-6.6554,-6.6607,-6.6681,-6.6674,-6.6743,-6.6763,-6.6836,-6.6849,-6.6956,-6.6976,-6.6987,-6.6988,-6.6985,-6.6983,-6.7008,-6.6997,-6.6995,-6.6994,-6.6993,-6.6992,0,-6.6221,-6.6251,-6.6375,-6.6442,-6.6461,-6.6539,-6.6595,-6.6662,-6.6688,-6.6782,-6.6805,-6.6844,-6.6929,-6.6953,-6.7055,-6.7064,-6.7188,-6.7183,-6.7167,-6.7165,-6.7235,-6.7226,-6.7468,-6.7499,-6.7309,-6.7311,-6.7312,0,-6.6324,-6.64,-6.6476,-6.6526,-6.6565,-6.6646,-6.6698,-6.6717,-6.677,-6.6848,-6.6904,-6.6989,-6.7057,-6.7194,-6.723,-6.7308,-6.7301,-6.7381,-6.7312,-6.7306,-6.7296,-6.729,-6.7296,-6.7391,-6.7393,-6.7395,-6.7396,0,-6.6501,-6.6512,-6.6588,-6.6669,-6.6731,-6.6796,-6.6857,-6.6899,-6.6926,-6.6986,-6.7075,-6.7128,-6.7233,-6.7316,-6.7395,-6.7429,-6.7416,-6.7419,-6.7439,-6.7433,-6.7419,-6.7423,-6.7197,-6.7412,-6.741,-6.7409,-6.7408,-6.7408,-6.6624,-6.669,-6.6753,-6.6837,-6.6887,-6.6944,-6.701,-6.7044,-6.7119,-6.7206,-6.7214,-6.7308,-6.7368,-6.7473,-6.7512,-6.7584,-6.756,-6.7591,-6.7597,-6.7603,-6.7607,-6.7412,-6.7599,-6.7599,-6.7599,-6.7598,-6.7598,0,-6.6796,-6.6837,-6.6915,-6.7002,-6.7068,-6.7054,-6.7122,-6.7176,-6.726,-6.7319,-6.7387,-6.7487,-6.7568,-6.7611,-6.7691,-6.7741,-6.7737,-6.7761,-6.7754,-6.7762,-6.7626,-6.7598,-6.7762,-6.7762,-6.7762,-6.7762,-6.7762,-6.7762,-6.6894,-6.7004,-6.7023,-6.7158,-6.7197,-6.7291,-6.733,-6.7383,-6.7429,-6.7542,-6.761,-6.7639,-6.769,-6.7774,-6.7847,-6.7857,-6.7885,-6.7911,-6.7918,-6.7789,-6.7772,-6.7755,-6.7729,-6.7918,-6.7918,-6.8046,-6.8048,-6.8049]},{"header":{"parameterUnit":"m.s-1","parameterCategory":1,"la1":30.2991,"la2":30.254,"lo1":-89.0895,"lo2":-89.0444,"dy":0.0017,"dx":0.0017,"nx":28,"ny":28,"refTime":"2025-06-03T09:00:00:Z","depth":0,"parameterNumber":3,"parameterNumberName":"V-component_of_WINDS"},"data":[0,0,0,0,0,0,0,0,0,0,0,0,0,0,0,0,0,0,0,0,0,0,0,0,0,0,0,0,0,0,0,0,0,0,0,0,0,0,0,0,0,0,0,0,0,0,0,0,0,0,0,0,0,0,0,0,0,0,2.9211,2.9211,0,2.9266,2.9266,2.9267,2.9229,2.9227,2.9225,2.9224,2.9279,2.9282,2.9285,0,0,0,0,0,0,0,0,0,0,0,0,0,2.9073,2.9075,2.9211,2.9211,2.9212,2.9265,2.9266,2.9267,2.9229,2.9227,2.9225,2.9223,2.9278,2.9281,2.9285,0,0,0,0,0,0,0,0,0,0,0,0,0,2.9131,2.9076,2.921,2.9199,2.9199,2.9265,2.9266,2.9267,2.9229,2.9227,2.9224,2.9222,2.9276,2.9281,2.9285,2.9365,0,0,2.93,2.9302,0,0,0,0,0,0,0,0,2.9127,2.9136,2.92,2.92,2.92,2.9238,2.9238,2.93,2.923,2.9218,2.9224,2.9221,2.9267,2.9272,2.9288,2.9368,2.937,2.93,2.9303,2.9305,2.9306,0,0,0,0,0,0,0,2.9123,2.9133,2.9232,2.9201,2.9201,2.9192,2.9197,2.9249,2.9256,2.9219,2.9216,2.9223,2.9266,2.9284,2.9289,2.9371,2.93,2.9304,2.9307,2.9308,2.952,2.9523,0,0,0,0,0,0,2.912,2.913,2.923,2.9234,2.9157,2.9196,2.9202,2.9228,2.9255,2.9257,2.9225,2.9221,2.9277,2.9284,2.9291,2.9387,2.9305,2.9309,2.9312,2.9517,2.9521,2.9524,0,0,0,0,0,0,2.9118,2.913,2.9228,2.9181,2.9193,2.9201,2.9231,2.9231,2.9248,2.926,2.9261,2.9242,2.9275,2.9284,2.9347,2.9388,2.9311,2.9315,2.9514,2.9518,2.9522,2.9578,0,0,0,0,0,0,2.9114,2.9129,2.9159,2.9182,2.9196,2.9284,2.9233,2.9234,2.9256,2.9251,2.9276,2.9278,2.9274,2.9341,2.9352,2.9393,2.9319,2.951,2.9516,2.9521,2.9573,2.9584,2.9593,0,0,0,0,0,2.9109,2.9172,2.9161,2.9173,2.9234,2.9286,2.9294,2.9289,2.926,2.929,2.9298,2.9277,2.9382,2.9348,2.936,2.9403,2.9508,2.9514,2.952,2.9568,2.9582,2.9593,0,0,0,0,0,0,2.9153,2.9175,2.9163,2.9235,2.9259,2.928,2.9318,2.9303,2.9336,2.933,2.9321,2.9327,2.9394,2.9404,2.9366,2.9482,2.944,2.9449,2.9472,2.9485,2.9495,2.9491,2.9323,0,0,0,0,0,2.9171,2.9212,2.9229,2.9292,2.9304,2.931,2.9332,2.9326,2.9351,2.936,2.9373,2.9397,2.9436,2.9461,2.9497,2.9575,2.958,2.961,2.9621,2.9629,2.9637,2.9679,2.9693,2.9545,2.9545,2.9545,0,0,2.9209,2.9226,2.9252,2.9301,2.9319,2.9361,2.9318,2.9365,2.9396,2.9367,2.9427,2.9438,2.9465,2.9535,2.9567,2.9547,2.9679,2.9637,2.9644,2.9647,2.9687,2.9701,2.9714,2.9549,2.9548,2.9548,0,0,2.9299,2.9317,2.9371,2.939,2.9418,2.9421,2.9435,2.9458,2.9464,2.9525,2.9504,2.9542,2.9608,2.9628,2.9647,2.9748,2.9729,2.976,2.9813,2.9855,2.9866,2.9876,2.9912,2.9925,2.9767,2.9768,2.9768,0,2.9343,2.9406,2.9401,2.9449,2.9471,2.9448,2.9503,2.9522,2.9561,2.9577,2.9553,2.9637,2.9653,2.9728,2.9753,2.9769,2.9784,2.9756,2.9865,2.9875,2.9885,2.9919,2.9933,2.9771,2.9771,2.977,2.977,0,2.9458,2.9503,2.9543,2.9582,2.9609,2.966,2.9663,2.9691,2.9683,2.9689,2.9752,2.9771,2.981,2.9828,2.9821,2.9903,2.989,2.9866,2.9824,2.9903,2.9935,2.9948,2.9776,2.9775,2.9774,2.9773,0,0,2.9576,2.9612,2.9627,2.9645,2.9675,2.9709,2.976,2.98,2.9824,2.9852,2.9895,2.9953,2.9931,2.9953,2.9948,2.9984,3.0063,2.9956,2.9957,2.9975,3.0156,3.0173,3.0188,3.0052,3.0055,3.0057,3.0154,0,2.9668,2.9757,2.9755,2.9838,2.9879,2.9859,2.9903,2.9927,2.9934,2.997,2.9978,3.0019,2.9988,3.0001,3.0037,3.0046,3.0099,3.0039,3.0091,3.0093,3.0085,3.0205,3.0223,3.0313,3.0166,3.0168,3.017,0,2.9787,2.982,2.9907,2.9932,2.995,2.999,3.0027,3.0062,3.0088,3.0091,3.0117,3.0106,3.0158,3.0116,3.0188,3.0147,3.0168,3.0177,3.018,3.0184,3.0136,3.0212,3.0342,3.0356,3.0189,3.0188,3.0186,0,2.9864,2.993,2.9991,3.0007,3.0038,3.0067,3.0081,3.0105,3.013,3.0162,3.0178,3.0216,3.0237,3.0267,3.0267,3.0236,3.034,3.0297,3.0344,3.0344,3.0366,3.0364,3.0501,3.0381,3.038,3.038,3.038,0,2.9967,3.0021,3.0027,3.0064,3.0125,3.0121,3.0181,3.0193,3.0215,3.0255,3.0239,3.0277,3.0275,3.0314,3.0314,3.0374,3.0383,3.0387,3.0387,3.0388,3.0388,3.0402,3.0395,3.0384,3.0383,3.0382,3.0382,0,3.0063,3.0069,3.0134,3.0159,3.0166,3.021,3.0231,3.0267,3.0273,3.0324,3.0335,3.0346,3.039,3.0394,3.0445,3.0445,3.0518,3.0511,3.0509,3.0507,3.0554,3.0549,3.0704,3.0724,3.0591,3.0592,3.0593,0,3.0128,3.0169,3.0199,3.0225,3.0241,3.0282,3.0307,3.0306,3.0333,3.0368,3.04,3.0443,3.0477,3.0549,3.0561,3.0601,3.0594,3.0645,3.06,3.06,3.0595,3.0592,3.0596,3.0654,3.0655,3.0657,3.0657,0,3.0242,3.0244,3.0281,3.032,3.0351,3.0381,3.0409,3.0431,3.0434,3.0465,3.0511,3.0537,3.059,3.0633,3.0672,3.0687,3.0673,3.0672,3.0685,3.0687,3.0684,3.0686,3.0533,3.0668,3.0667,3.0666,3.0666,3.0665,3.0325,3.0361,3.0388,3.043,3.0451,3.0479,3.0514,3.0526,3.0564,3.0607,3.0604,3.0655,3.0682,3.0733,3.0751,3.079,3.0773,3.0791,3.0796,3.0801,3.0805,3.0679,3.0797,3.0797,3.0797,3.0796,3.0796,0,3.0438,3.0455,3.0494,3.0535,3.0568,3.0553,3.0584,3.0613,3.0658,3.0684,3.0719,3.0772,3.0814,3.083,3.0872,3.09,3.0895,3.0911,3.0909,3.0912,3.0818,3.0803,3.0915,3.0915,3.0915,3.0915,3.0915,3.0915,3.0501,3.0562,3.0567,3.0638,3.0654,3.0704,3.0723,3.0749,3.077,3.083,3.0865,3.0875,3.0898,3.0941,3.098,3.0983,3.0999,3.1018,3.1019,3.0931,3.0919,3.0907,3.0893,3.1021,3.1022,3.1109,3.111,3.1111]}]]